Regional Weather Roundup
Issued by NWS Pendleton, OR

Home | Current Version | Previous Version | Text Only | Print | Product List | Glossary On
Versions: 1 2 3 4 5 6 7 8 9 10 11 12 13 14 15 16 17 18 19 20 21 22 23 24 25 26 27 28 29 30 31 32 33 34 35 36 37 38 39 40 41 42 43 44 45 46 47 48 49 50
295
ASUS46 KPDT 272310
RWRPDT
PENDLETON REGIONAL WEATHER ROUNDUP
NATIONAL WEATHER SERVICE PENDLETON OREGON
400 PM PDT WED JUL 27 2016

NOTE: FAIR INDICATES FEW OR NO CLOUDS BELOW 12,000 FEET WITH NO
SIGNIFICANT WEATHER AND/OR OBSTRUCTIONS TO VISIBILITY.

# INDICATES UNOFFICIAL STATION AND DATA

WAZ520-280010-
EAST SLOPES OF WASHINGTON CASCADES

CITY            SKY/WX      TMP DP  RH  WIND    PRES   REMARKS
#CLE ELUM HS    N/A         86  49  28  W7      29.99F
#CLE ELUM 2NW   N/A         85  47  27  SW5     N/A
#GLENWOOD       N/A         90  55  31  S1      29.92F HX 88
#MANASTASH CYN  N/A         82  56  41  CALM    30.05F
#NELSON 3SW     N/A         83  51  33  CALM    30.13S
#NILE           N/A         89  52  28  E1      29.21F
#RONALD 2NW     N/A         86  N/A N/A W2      30.14S
#TEANAWAY 4NE   N/A         90  57  33  SW5     N/A    HX 89
#TROUT LAKE 1NE N/A         88  58  36  CALM    29.91F
#TROUT LAKE 1E  N/A         90  61  38  CALM    29.98F HX 90
$$

WAZ521-280010-
SIMCOE HIGHLANDS

CITY            SKY/WX      TMP DP  RH  WIND    PRES   REMARKS
#CENTERVILLE 1SWN/A         91  53  28  NW5     29.88F HX 89
#GOLDENDALE 1NE N/A         91  31  12  E5      N/A    HX 87
#GOLDENDALE 4W  N/A         94  60  32  S7      30.02F HX 94
#LYLE 6NE       N/A         87  56  35  SW8     29.90F
$$

WAZ026-280010-
KITTITAS VALLEY

CITY            SKY/WX      TMP DP  RH  WIND    PRES   REMARKS
ELLENSBURG AP   SUNNY       95  49  21  NW6     30.01F HX 92
#ELLENSBURG CWU N/A         93  54  27  N1      29.88F HX 91
#ELLENSBURG 3NE N/A         88  56  34  CALM    30.01F
#ELLENSBURG     N/A         99  54  22  NE2     N/A    HX 97
#ELLENSBURG 1E  N/A         94  N/A N/A CALM    N/A
#KITTITAS 4N    N/A         92  56  30  W5      30.05F HX 90
#KITTITAS 3S    N/A         88  58  36  CALM    29.90F
#THORP 6N       N/A         88  54  31  W9      29.95F
$$

WAZ027-280010-
YAKIMA VALLEY

CITY            SKY/WX      TMP DP  RH  WIND    PRES   REMARKS
SUNNYSIDE AP    SUNNY       92  58  32  SE3     29.96F HX 91
YAKIMA AIRPORT  SUNNY       96  49  20  E5      29.98F HX 93
YAKIMA-VAGABOND N/A         94  47  20  SW6     29.97F HX 90
#DONALD 2NE     N/A         95  20   7  SE1     28.82F HX 90
#GRANDVIEW      N/A         89  54  31  CALM    29.93F
#MABTON         N/A         91  59  34  CALM    29.95F HX 90
#NACHES 2SW     N/A         91  64  41  SE3     30.05S HX 93
#TERRACE HTS    N/A         94  58  30  S1      29.87F HX 93
#TOPPENISH      N/A         90  58  34  CALM    29.83F HX 89
#WEST VALLEY    N/A         92  56  30  CALM    29.89F HX 90
#W YAKIMA       N/A         92  54  28  SE2     29.90F HX 90
#WHITE SWAN 5E  N/A         91  61  37  N5      29.91F HX 91
#WILEY CITY 3W  N/A         92  49  23  CALM    29.97F HX 89
$$

WAZ028-280010-
LOWER COLUMBIA BASIN...WASHINGTON

CITY            SKY/WX      TMP DP  RH  WIND    PRES   REMARKS
HANFORD         MOSUNNY     95  49  21  W5      29.95F HX 92
PASCO           PTCLDY      96  54  25  N8      29.94F HX 94
PROSSER AWOS    N/A         91  59  34  NW5     29.98F HX 90
RICHLAND AWOS   PTCLDY      96  55  25  SE5     29.93F HX 94
#BENTON CITY    N/A         92  56  30  N2      29.81F HX 90
#CONNELL 5N     N/A         94  58  30  W2      29.91S HX 93
#CONNELL 5NW    N/A         93  63  37  W5      29.87F HX 94
#ELTOPIA 6NW    N/A         96  60  30  CALM    28.94F HX 96
#KAHLOTUS       N/A         91  53  28  NW5     29.88F HX 89
#KENNEWICK 3S   N/A         93  62  36  CALM    29.91F HX 94
#PATERSON       N/A         94  59  31  W2      29.89F HX 93
#SAGEMOOR 2W    N/A         89  63  42  N2      29.77F
#TOUCHET 2S     N/A         93  62  36  NW7     29.89F HX 94
#WEST PASCO     N/A         95  62  34  W1      29.93F HX 96
$$

WAZ029-280010-
FOOTHILLS OF THE BLUES...WASHINGTON

CITY            SKY/WX      TMP DP  RH  WIND    PRES   REMARKS
WALLA WALLA AP  MOCLDY      94  54  26  NW10    29.97F HX 92
#CLYDE 6NW      N/A         93  54  27  N7      29.88F HX 91
#DAYTON SCHOOL  N/A         93  50  23  E2      29.99F HX 90
#LOWDEN 2SE     N/A         94  62  35  W7      29.89F HX 95
#PLEASANT VIEW 1N/A         93  52  25  N2      29.92F HX 90
#PRESCOTT       N/A         93  60  33  CALM    29.87F HX 93
#WHITMAN COLLEGEN/A         92  59  33  CALM    29.94F HX 91
#WAITSBURG 5S   N/A         93  55  28  S2      29.98F HX 91
#WALLA WALLA U  N/A         94  59  31  CALM    29.89F HX 93
#WHITMAN MISSIONN/A         93  64  39  CALM    29.91F HX 95
$$

WAZ030-280010-
BLUE MOUNTAINS...WASHINGTON

CITY            SKY/WX      TMP DP  RH  WIND    PRES   REMARKS
#DIXIE 5SE      N/A         84  53  34  NW6     30.02F
$$

ORZ009-041-WAZ024-280010-
COLUMBIA RIVER GORGE

CITY            SKY/WX      TMP DP  RH  WIND    PRES   REMARKS
HOOD RIVER AP   SUNNY       91  54  29  NW9     29.97F HX 89
THE DALLES AP   SUNNY       95  54  25  N16     29.92F HX 93
#ARLINGTON AIRPON/A         94  55  27  NE3     29.91F HX 92
#LYLE           N/A         89  60  38  W7      29.93F
#MARYHILL 2W    N/A         92  51  25  CALM    N/A    HX 89
#MOSIER 1S      N/A         88  46  23  N9      29.97S
#MURDOCK        N/A         90  60  37  W12     29.87F HX 90
#RUFUS DOT      N/A         94  53  25  N1      N/A    HX 91
#SMITHVILLE     N/A         94  58  30  NW12    29.85F HX 93

$$

ORZ510-280010-
NORTH CENTRAL OREGON

CITY            SKY/WX      TMP DP  RH  WIND    PRES   REMARKS
#ANTELOPE       N/A         90  49  25  N3      29.75F HX 87
#CHENOWITH 1W   N/A         87  51  29  W10     N/A
#COW CYN RST AREN/A         87  N/A N/A N2      N/A
#DUFUR 9E       N/A         86  46  25  W5      29.97F
#GRASS VALLEY 1SN/A         90  46  22  NE2     29.99F HX 87
#KENT DOT       N/A         91  47  22  N7      N/A    HX 88
#MAUPIN SCHOOL  N/A         95  55  26  NE1     29.97F HX 93
#SHANIKO 5WSW   N/A         86  42  21  N8      N/A
#SHANIKO 4NW    N/A         85  57  39  NE1     30.13F
#TYGH VALLEY 2NEN/A         94  49  22  N2      29.90F HX 91
#WAPANITIA AIRPON/A         92  49  23  N3      29.92F HX 89
#WASCO 5NE      N/A         95  54  25  W5      29.90F HX 93
$$

ORZ511-280010-
CENTRAL OREGON

CITY            SKY/WX      TMP DP  RH  WIND    PRES   REMARKS
BEND AIRPORT    SUNNY       90  36  15  N9      30.08F HX 86
MADRAS AIRPORT  SUNNY       97  32  10  N9      30.06F HX 92
PRINEVILLE AP   SUNNY       90  32  13  N8      30.07F HX 86
REDMOND AIRPORT SUNNY       92  25   9  N13     30.07S HX 88
#ASHWOOD SCHOOL N/A         91  39  16  N7      29.99F HX 87
#BEND 1SW       N/A         87  42  21  NW3     N/A
#BEND-AWBREY    N/A         90  43  20  N2      29.90F HX 86
#CULVER         N/A         89  34  14  N5      29.85F
#CULVER 8W      N/A         90  31  12  CALM    30.05F HX 86
#LAKE BILLY CHINN/A         94  N/A N/A W3      30.05F
#MADRAS 4S      N/A         89  26  10  N6      30.11F
#POWELL BUTTE   N/A         90  42  19  NE7     29.95F HX 86
#PRINEVILLE 3N  N/A         87  48  26  W6      29.96F
#WARM SPRINGS   N/A         95  48  20  CALM    29.95F HX 91

$$


ORZ509-280010-
EAST SLOPES OF OREGON CASCADES

CITY            SKY/WX      TMP DP  RH  WIND    PRES   REMARKS
SISTERS AWOS    N/A         90  37  15  N8      30.04F HX 86
#CAMP SHERMAN   N/A         93  38  15  CALM    29.99R HX 89
#LA PINE DOT    N/A         93  28  10  SW8     N/A    HX 88
#LA PINE 4NW    N/A         90  47  23  CALM    29.92F HX 87
#LAVA BUTTE DOT N/A         88  42  20  N1      N/A
#SISTERS AIRPOR N/A         89  49  25  N3      30.17S
#SISTERS ODOT   N/A         91  N/A N/A N3      N/A
#SISTERS 3N     N/A         87  44  22  N2      30.06S
#SUNRIVER       N/A         89  45  22  NE3     30.04F
#TUMALO 3W      N/A         86  41  21  N7      29.78F
#WANOGA BUTTE D N/A         77  34  21  NE8     N/A

$$

ORZ044-280010-
LOWER COLUMBIA BASIN...OREGON

CITY            SKY/WX      TMP DP  RH  WIND    PRES   REMARKS
HERMISTON       PTCLDY      97  57  27  MISG    29.93F HX 96
#BOARDMAN 8SW   N/A         94  56  28  NE2     29.90F HX 92
#ECHO 8SW       N/A         94  55  27  N3      29.95F HX 92
#I-84 EX 198 DOTN/A         92  64  40  E9      N/A    HX 94
#UMATILLA       N/A         98  58  27  CALM    29.83F HX 98
$$

ORZ507-280010-
NORTHERN FOOTHILLS OF THE BLUES

CITY            SKY/WX      TMP DP  RH  WIND    PRES   REMARKS
PENDLETON AIRPT PTCLDY      96  49  20  N13     29.97F HX 93
#ADAMS 3WNW     N/A         92  55  29  N9      29.88F HX 90
#ATHENA         N/A         89  55  32  NE1     29.93F
#CAYUSE         N/A         91  54  29  N6      29.87F HX 89
#HELIX SCHOOL   N/A         88  55  33  NW7     29.91F
#HELIX 3N       N/A         89  54  31  N7      29.99F
#HELIX 6SW      N/A         91  54  29  N6      29.98F HX 89
#HOLDMAN 5SE    N/A         92  53  27  N2      29.97F HX 90
#HOLDMAN 6E     N/A         91  53  28  SE7     29.72F HX 89
#M-F GROVE ELEM N/A         91  53  28  N1      29.96F HX 89
#M-FREEWATER 5SEN/A         91  63  40  NW5     29.97F HX 92
#PENDLETON DNTN N/A         98  53  22  SE5     29.95F HX 96
#PDT AQUATIC CTRN/A         97  55  25  NE6     29.80F HX 95
#PDT SUNRIDGE   N/A         95  52  24  W5      29.97F HX 92
#PENDLETON 7NW  N/A         91  63  40  W5      31.70S HX 92
#PILOT ROCK 1S  N/A         91  51  26  N5      30.00F HX 88
#PILOT ROCK     N/A         93  53  26  E2      30.01F HX 91
#TUTUILLA       N/A         94  54  26  CALM    29.92F HX 92
#UMAPINE 2E     N/A         92  67  44  CALM    29.92F HX 96
#WESTON SCHOOL  N/A         86  48  27  SE5     29.81F

$$

ORZ508-280010-
SOUTHERN FOOTHILLS OF THE BLUES

CITY            SKY/WX      TMP DP  RH  WIND    PRES   REMARKS
LEXINGTON       SUNNY       93  48  22  VRB5    30.02F HX 90
#CONDON 5W      N/A         85  43  23  VRB7    30.07F
#HEPPNER EOC    N/A         92  49  23  W6      29.84F HX 89
#HEPPNER 4NE    N/A         86  50  29  N3      29.90F
#LEXINGTON 2SE  N/A         93  52  25  N5      29.95F HX 90
#RUGGS 5NE      N/A         91  48  23  VRB15   30.27S HX 88
#RUGGS 2SW      N/A         88  48  25  NE7     29.92F

$$

ORZ502-503-280010-
BLUE MOUNTAINS

CITY            SKY/WX      TMP DP  RH  WIND    PRES   REMARKS
MEACHAM         SUNNY       85  38  19  VRB3    30.12F
#BATTLE MTN DOT N/A         83  51  33  N5      N/A
#CUTSFORTH PARK N/A         86  48  27  N1      29.91F
#GREENHORN 9SW  N/A         92  40  16  SE2     26.26F HX 88
#HARDMAN 10S    N/A         61  34  36  N5      30.22R
#HEPPNER 15SE   N/A         84  48  29  W2      25.66F
#LADD CYN SMT   N/A         90  50  26  NE9     N/A    HX 87
#LADD CREEK ODOTN/A         90  54  30  NE6     N/A    HX 88
#LONG CREEK HS  N/A         87  38  18  CALM    N/A
#N POWDER DOT   N/A         89  56  33  N12     N/A
#PIKES PEAK     N/A         81  54  39  N5      27.99S
#TOLLGATE       N/A         76  51  42  N2      30.05F
#TROY SCHOOL    N/A         98  54  23  CALM    29.68F HX 96
#UKIAH          N/A         86  50  29  NW8     29.84F
#WESTON 4E      N/A         84  55  37  NW2     29.88F
$$

ORZ505-280010-
JOHN DAY BASIN

CITY            SKY/WX      TMP DP  RH  WIND    PRES   REMARKS
JOHN DAY        PTCLDY      96  33  11  N12     30.06F HX 91
#DAYVILLE SCHOOLN/A         96  41  15  NW6     29.96F HX 92
#MITCHELL       N/A         92  55  29  W1      30.21F HX 90
#MITCHELL 8NW   N/A         89  38  17  NE6     30.07F
#MONUMENT HS    N/A         96  44  17  W7      29.83F HX 92
#MT. VERNON 5SE N/A         91  39  16  S5      30.03F HX 87
#SPRAY SCHOOL   N/A         98  N/A N/A NW2     N/A
$$

ORZ506-280010-
OCHOCO AND JOHN DAY HIGHLANDS

CITY            SKY/WX      TMP DP  RH  WIND    PRES   REMARKS
#HORSE RIDGE DO N/A         87  32  14  N14     N/A
#PAULINA SCHOOL N/A         93  28  10  NW7     N/A    HX 88
#PINE MTN OBS   N/A         75  41  29  CALM    N/A
#PRAIRIE CITY   N/A         97  36  12  W3      30.20F HX 92
#SENECA         N/A         87  N/A N/A N7      N/A
#SENECA 9NW     N/A         91  39  16  E1      29.83F HX 87
$$

ORZ049-280010-
GRANDE RONDE VALLEY

CITY            SKY/WX      TMP DP  RH  WIND    PRES   REMARKS
LA GRANDE       SUNNY       93  46  20  N12     30.02F HX 89
#COVE           N/A         93  54  27  N3      30.07F HX 91
#COVE SCHOOL    N/A         92  45  20  CALM    30.05F HX 88
#COVE 6NW       N/A         91  47  22  NW6     29.90F HX 88
#ELGIN 3N       N/A         91  43  19  CALM    30.00S HX 87
#ELGIN 1E       N/A         92  53  27  CALM    N/A    HX 90
#IMBLER SCHOOL  N/A         89  50  26  NW3     29.98F
#ISLAND CITY 4N N/A         88  59  38  NE1     30.03F
#LADD CYN DOT   N/A         92  56  30  N8      N/A    HX 90
#UNION 1S       N/A         94  48  21  NE3     29.78F HX 91
$$

ORZ050-280010-
WALLOWA COUNTY

CITY            SKY/WX      TMP DP  RH  WIND    PRES   REMARKS
JOSEPH AIRPORT  PTCLDY      90  37  15  NW6     N/A    HX 86
#ENTERPRISE AP  N/A         49  29  46  CALM    30.03F
#ENTERPRISE HS  N/A         90  48  24  CALM    30.07F HX 87
#IMNAHA SCHOOL  N/A         98  44  16  CALM    29.93F HX 94
#IMNAHA 10S     N/A         94  47  20  NE6     30.00S HX 90
#JOSEPH 3N      N/A         86  41  21  NW8     30.11F
#JOSEPH 3W      N/A         87  45  23  N5      29.99F
#LOSTINE        N/A         91  37  15  NE2     29.68F HX 87
#LOSTINE 3SE    N/A         90  39  17  N3      30.04F HX 86
#MT HOWARD 8000 N/A         68  43  40  NW2     30.42F
#PROMISE 1S     N/A         86  48  27  S6      29.98F
#WALLOWA SCHOOL N/A         92  34  13  NW2     30.00S HX 88



$$



USA.gov is the U.S. government's official web portal to all federal, state and local government web resources and services.